Time,TemperatureF,DewpointF,PressureIn,WindDirection,WindDirectionDegrees,WindSpeedMPH,WindSpeedGustMPH,Humidity,HourlyPrecipIn,Conditions,Clouds,dailyrainin,SolarRadiationWatts/m^2,SoftwareType,DateUTC
2013-06-09 00:00:00,56.0,52.0,-100.00,ESE,112,1.0,-999.0,88,-99.99,,,-99.99,1.160000,,2013-06-09 04:00:00,
2013-06-09 00:33:00,56.0,52.0,-100.00,ESE,112,1.0,-999.0,88,-99.99,,,-99.99,1.160000,,2013-06-09 04:33:00,
2013-06-09 00:43:00,56.0,52.0,-100.00,ESE,112,1.0,-999.0,88,-99.99,,,-99.99,1.160000,,2013-06-09 04:43:00,
2013-06-09 00:53:00,56.0,52.0,-100.00,ESE,112,1.0,-999.0,88,-99.99,,,-99.99,1.160000,,2013-06-09 04:53:00,
2013-06-09 01:00:00,55.0,52.0,-100.00,SE,135,0.0,-999.0,89,-99.99,,,-99.99,1.160000,,2013-06-09 05:00:00,
2013-06-09 01:32:00,55.0,52.0,-100.00,SE,135,0.0,-999.0,89,-99.99,,,-99.99,1.160000,,2013-06-09 05:32:00,
2013-06-09 01:42:00,55.0,52.0,-100.00,SE,135,0.0,-999.0,89,-99.99,,,-99.99,1.160000,,2013-06-09 05:42:00,
2013-06-09 01:52:00,55.0,52.0,-100.00,SE,135,0.0,-999.0,89,-99.99,,,-99.99,1.160000,,2013-06-09 05:52:00,
2013-06-09 02:00:00,54.0,52.0,-100.00,SE,135,1.0,-999.0,90,-99.99,,,-99.99,1.160000,,2013-06-09 06:00:00,
2013-06-09 02:32:00,54.0,52.0,-100.00,SE,135,1.0,-999.0,90,-99.99,,,-99.99,1.160000,,2013-06-09 06:32:00,
2013-06-09 02:42:00,54.0,52.0,-100.00,SE,135,1.0,-999.0,90,-99.99,,,-99.99,1.160000,,2013-06-09 06:42:00,
2013-06-09 02:52:00,54.0,52.0,-100.00,SE,135,1.0,-999.0,90,-99.99,,,-99.99,1.160000,,2013-06-09 06:52:00,
2013-06-09 03:00:00,57.0,52.0,-100.00,SE,135,1.0,-999.0,84,-99.99,,,-99.99,1.160000,,2013-06-09 07:00:00,
2013-06-09 03:32:00,57.0,52.0,-100.00,SE,135,1.0,-999.0,84,-99.99,,,-99.99,1.160000,,2013-06-09 07:32:00,
2013-06-09 03:42:00,57.0,52.0,-100.00,SE,135,1.0,-999.0,84,-99.99,,,-99.99,1.160000,,2013-06-09 07:42:00,
2013-06-09 03:52:00,57.0,52.0,-100.00,SE,135,1.0,-999.0,84,-99.99,,,-99.99,1.160000,,2013-06-09 07:52:00,
2013-06-09 04:00:00,57.0,52.0,-100.00,SE,135,0.0,-999.0,85,-99.99,,,-99.99,1.160000,,2013-06-09 08:00:00,
2013-06-09 04:32:00,57.0,52.0,-100.00,SE,135,0.0,-999.0,85,-99.99,,,-99.99,1.160000,,2013-06-09 08:32:00,
2013-06-09 04:42:00,57.0,52.0,-100.00,SE,135,0.0,-999.0,85,-99.99,,,-99.99,1.160000,,2013-06-09 08:42:00,
2013-06-09 04:53:00,57.0,52.0,-100.00,SE,135,0.0,-999.0,85,-99.99,,,-99.99,1.160000,,2013-06-09 08:53:00,
2013-06-09 05:00:00,56.0,53.0,-100.00,SE,135,0.0,-999.0,87,-99.99,,,-99.99,1.160000,,2013-06-09 09:00:00,
2013-06-09 05:33:00,56.0,53.0,-100.00,SE,135,0.0,-999.0,87,-99.99,,,-99.99,1.160000,,2013-06-09 09:33:00,
2013-06-09 05:43:00,56.0,53.0,-100.00,SE,135,0.0,-999.0,87,-99.99,,,-99.99,1.160000,,2013-06-09 09:43:00,
2013-06-09 05:52:00,56.0,53.0,-100.00,SE,135,0.0,-999.0,87,-99.99,,,-99.99,1.160000,,2013-06-09 09:52:00,
2013-06-09 06:00:00,57.0,53.0,-100.00,SE,135,0.0,-999.0,85,-99.99,,,-99.99,1.160000,,2013-06-09 10:00:00,
2013-06-09 06:32:00,57.0,53.0,-100.00,SE,135,0.0,-999.0,85,-99.99,,,-99.99,1.160000,,2013-06-09 10:32:00,
2013-06-09 06:43:00,57.0,53.0,-100.00,SE,135,0.0,-999.0,85,-99.99,,,-99.99,1.160000,,2013-06-09 10:43:00,
2013-06-09 06:52:00,57.0,53.0,-100.00,SE,135,0.0,-999.0,85,-99.99,,,-99.99,1.160000,,2013-06-09 10:52:00,
2013-06-09 07:00:00,59.0,53.0,-100.00,South,180,1.0,-999.0,82,-99.99,,,-99.99,25.520000,,2013-06-09 11:00:00,
2013-06-09 07:32:00,59.0,53.0,-100.00,South,180,1.0,-999.0,82,-99.99,,,-99.99,25.520000,,2013-06-09 11:32:00,
2013-06-09 07:42:00,59.0,53.0,-100.00,South,180,1.0,-999.0,82,-99.99,,,-99.99,25.520000,,2013-06-09 11:42:00,
2013-06-09 07:53:00,59.0,53.0,-100.00,South,180,1.0,-999.0,82,-99.99,,,-99.99,25.520000,,2013-06-09 11:53:00,
2013-06-09 08:00:00,61.0,54.0,-100.00,WSW,247,2.0,-999.0,78,-99.99,,,-99.99,77.720001,,2013-06-09 12:00:00,
2013-06-09 08:32:00,61.0,54.0,-100.00,WSW,247,2.0,-999.0,78,-99.99,,,-99.99,77.720001,,2013-06-09 12:32:00,
2013-06-09 08:42:00,61.0,54.0,-100.00,WSW,247,2.0,-999.0,78,-99.99,,,-99.99,77.720001,,2013-06-09 12:42:00,
2013-06-09 08:52:00,61.0,54.0,-100.00,WSW,247,2.0,-999.0,78,-99.99,,,-99.99,77.720001,,2013-06-09 12:52:00,
2013-06-09 09:00:00,64.0,55.0,-100.00,SW,225,2.0,-999.0,73,-99.99,,,-99.99,211.119995,,2013-06-09 13:00:00,
2013-06-09 09:32:00,64.0,55.0,-100.00,SW,225,2.0,-999.0,73,-99.99,,,-99.99,211.119995,,2013-06-09 13:32:00,
2013-06-09 09:42:00,64.0,55.0,-100.00,SW,225,2.0,-999.0,73,-99.99,,,-99.99,211.119995,,2013-06-09 13:42:00,
2013-06-09 09:52:00,64.0,55.0,-100.00,SW,225,2.0,-999.0,73,-99.99,,,-99.99,211.119995,,2013-06-09 13:52:00,
2013-06-09 10:00:00,69.0,57.0,-100.00,SW,225,4.0,-999.0,66,-99.99,,,-99.99,389.760010,,2013-06-09 14:00:00,
2013-06-09 10:32:00,69.0,57.0,-100.00,SW,225,4.0,-999.0,66,-99.99,,,-99.99,389.760010,,2013-06-09 14:32:00,
2013-06-09 10:43:00,69.0,57.0,-100.00,SW,225,4.0,-999.0,66,-99.99,,,-99.99,389.760010,,2013-06-09 14:43:00,
2013-06-09 10:52:00,69.0,57.0,-100.00,SW,225,4.0,-999.0,66,-99.99,,,-99.99,389.760010,,2013-06-09 14:52:00,
2013-06-09 11:00:00,73.0,59.0,-100.00,SSW,202,6.0,-999.0,60,-99.99,,,-99.99,510.399994,,2013-06-09 15:00:00,
2013-06-09 11:33:00,73.0,59.0,-100.00,SSW,202,6.0,-999.0,60,-99.99,,,-99.99,510.399994,,2013-06-09 15:33:00,
2013-06-09 11:43:00,73.0,59.0,-100.00,SSW,202,6.0,-999.0,60,-99.99,,,-99.99,510.399994,,2013-06-09 15:43:00,
2013-06-09 11:53:00,73.0,59.0,-100.00,SSW,202,6.0,-999.0,60,-99.99,,,-99.99,510.399994,,2013-06-09 15:53:00,
2013-06-09 12:00:00,77.0,59.0,-100.00,SSE,157,6.0,-999.0,54,-99.99,,,-99.99,598.559998,,2013-06-09 16:00:00,
2013-06-09 12:33:00,77.0,59.0,-100.00,SSE,157,6.0,-999.0,54,-99.99,,,-99.99,598.559998,,2013-06-09 16:33:00,
2013-06-09 12:43:00,77.0,59.0,-100.00,SSE,157,6.0,-999.0,54,-99.99,,,-99.99,598.559998,,2013-06-09 16:43:00,
2013-06-09 12:53:00,77.0,59.0,-100.00,SSE,157,6.0,-999.0,54,-99.99,,,-99.99,598.559998,,2013-06-09 16:53:00,
2013-06-09 13:00:00,79.0,57.0,-100.00,NW,315,7.0,-999.0,47,-99.99,,,-99.99,632.200012,,2013-06-09 17:00:00,
2013-06-09 13:32:00,79.0,57.0,-100.00,NW,315,7.0,-999.0,47,-99.99,,,-99.99,632.200012,,2013-06-09 17:32:00,
2013-06-09 13:42:00,79.0,57.0,-100.00,NW,315,7.0,-999.0,47,-99.99,,,-99.99,632.200012,,2013-06-09 17:42:00,
2013-06-09 13:52:00,79.0,57.0,-100.00,NW,315,7.0,-999.0,47,-99.99,,,-99.99,632.200012,,2013-06-09 17:52:00,
2013-06-09 14:00:00,80.0,56.0,-100.00,SE,135,8.0,-999.0,44,-99.99,,,-99.99,582.320007,,2013-06-09 18:00:00,
2013-06-09 14:33:00,80.0,56.0,-100.00,SE,135,8.0,-999.0,44,-99.99,,,-99.99,582.320007,,2013-06-09 18:33:00,
2013-06-09 14:42:00,80.0,56.0,-100.00,SE,135,8.0,-999.0,44,-99.99,,,-99.99,582.320007,,2013-06-09 18:42:00,
2013-06-09 14:52:00,80.0,56.0,-100.00,SE,135,8.0,-999.0,44,-99.99,,,-99.99,582.320007,,2013-06-09 18:52:00,
2013-06-09 15:00:00,80.0,56.0,-100.00,North,0,6.0,-999.0,44,-99.99,,,-99.99,354.959991,,2013-06-09 19:00:00,
2013-06-09 15:32:00,80.0,56.0,-100.00,North,0,6.0,-999.0,44,-99.99,,,-99.99,354.959991,,2013-06-09 19:32:00,
2013-06-09 15:43:00,80.0,56.0,-100.00,North,0,6.0,-999.0,44,-99.99,,,-99.99,354.959991,,2013-06-09 19:43:00,
2013-06-09 15:52:00,80.0,56.0,-100.00,North,0,6.0,-999.0,44,-99.99,,,-99.99,354.959991,,2013-06-09 19:52:00,
2013-06-09 16:00:00,80.0,56.0,-100.00,WNW,292,5.0,-999.0,44,-99.99,,,-99.99,312.040009,,2013-06-09 20:00:00,
2013-06-09 16:32:00,80.0,56.0,-100.00,WNW,292,5.0,-999.0,44,-99.99,,,-99.99,312.040009,,2013-06-09 20:32:00,
2013-06-09 16:42:00,80.0,56.0,-100.00,WNW,292,5.0,-999.0,44,-99.99,,,-99.99,312.040009,,2013-06-09 20:42:00,
2013-06-09 16:52:00,80.0,56.0,-100.00,WNW,292,5.0,-999.0,44,-99.99,,,-99.99,312.040009,,2013-06-09 20:52:00,
2013-06-09 17:00:00,79.0,56.0,-100.00,WSW,247,5.0,-999.0,45,-99.99,,,-99.99,194.880005,,2013-06-09 21:00:00,
2013-06-09 17:33:00,79.0,56.0,-100.00,WSW,247,5.0,-999.0,45,-99.99,,,-99.99,194.880005,,2013-06-09 21:33:00,
2013-06-09 17:44:00,79.0,56.0,-100.00,WSW,247,5.0,-999.0,45,-99.99,,,-99.99,194.880005,,2013-06-09 21:44:00,
2013-06-09 17:53:00,79.0,56.0,-100.00,WSW,247,5.0,-999.0,45,-99.99,,,-99.99,194.880005,,2013-06-09 21:53:00,
2013-06-09 18:00:00,79.0,58.0,-100.00,WNW,292,5.0,-999.0,48,-99.99,,,-99.99,240.119995,,2013-06-09 22:00:00,
2013-06-09 18:33:00,79.0,58.0,-100.00,WNW,292,5.0,-999.0,48,-99.99,,,-99.99,240.119995,,2013-06-09 22:33:00,
2013-06-09 18:42:00,79.0,58.0,-100.00,WNW,292,5.0,-999.0,48,-99.99,,,-99.99,240.119995,,2013-06-09 22:42:00,
2013-06-09 18:52:00,79.0,58.0,-100.00,WNW,292,5.0,-999.0,48,-99.99,,,-99.99,240.119995,,2013-06-09 22:52:00,
2013-06-09 19:00:00,76.0,61.0,-100.00,NW,315,5.0,-999.0,59,0.02,,,-99.99,71.919998,,2013-06-09 23:00:00,
2013-06-09 19:32:00,76.0,61.0,-100.00,NW,315,5.0,-999.0,59,0.02,,,-99.99,71.919998,,2013-06-09 23:32:00,
2013-06-09 19:43:00,76.0,61.0,-100.00,NW,315,5.0,-999.0,59,0.02,,,-99.99,71.919998,,2013-06-09 23:43:00,
2013-06-09 19:52:00,76.0,61.0,-100.00,NW,315,5.0,-999.0,59,0.02,,,-99.99,71.919998,,2013-06-09 23:52:00,
2013-06-09 20:00:00,70.0,64.0,-100.00,NW,315,4.0,-999.0,80,0.01,,,-99.99,15.080000,,2013-06-10 00:00:00,
2013-06-09 20:32:00,70.0,64.0,-100.00,NW,315,4.0,-999.0,80,0.01,,,-99.99,15.080000,,2013-06-10 00:32:00,
2013-06-09 20:42:00,70.0,64.0,-100.00,NW,315,4.0,-999.0,80,0.01,,,-99.99,15.080000,,2013-06-10 00:42:00,
2013-06-09 20:52:00,70.0,64.0,-100.00,NW,315,4.0,-999.0,80,0.01,,,-99.99,15.080000,,2013-06-10 00:52:00,
2013-06-09 21:00:00,68.0,63.0,-100.00,West,270,4.0,-999.0,83,0.02,,,-99.99,18.559999,,2013-06-10 01:00:00,
2013-06-09 21:32:00,68.0,63.0,-100.00,West,270,4.0,-999.0,83,0.02,,,-99.99,18.559999,,2013-06-10 01:32:00,
2013-06-09 21:43:00,68.0,63.0,-100.00,West,270,4.0,-999.0,83,0.02,,,-99.99,18.559999,,2013-06-10 01:43:00,
2013-06-09 21:52:00,68.0,63.0,-100.00,West,270,4.0,-999.0,83,0.02,,,-99.99,18.559999,,2013-06-10 01:52:00,
2013-06-09 22:00:00,67.0,62.0,-100.00,West,270,2.0,-999.0,82,-99.99,,,-99.99,3.480000,,2013-06-10 02:00:00,
2013-06-09 22:32:00,67.0,62.0,-100.00,West,270,2.0,-999.0,82,-99.99,,,-99.99,3.480000,,2013-06-10 02:32:00,
2013-06-09 22:42:00,67.0,62.0,-100.00,West,270,2.0,-999.0,82,-99.99,,,-99.99,3.480000,,2013-06-10 02:42:00,
2013-06-09 22:52:00,67.0,62.0,-100.00,West,270,2.0,-999.0,82,-99.99,,,-99.99,3.480000,,2013-06-10 02:52:00,
2013-06-09 23:00:00,67.0,60.0,-100.00,West,270,3.0,-999.0,77,-99.99,,,-99.99,2.320000,,2013-06-10 03:00:00,
2013-06-09 23:33:00,67.0,60.0,-100.00,West,270,3.0,-999.0,77,-99.99,,,-99.99,2.320000,,2013-06-10 03:33:00,
2013-06-09 23:43:00,67.0,60.0,-100.00,West,270,3.0,-999.0,77,-99.99,,,-99.99,2.320000,,2013-06-10 03:43:00,
2013-06-09 23:53:00,67.0,60.0,-100.00,West,270,3.0,-999.0,77,-99.99,,,-99.99,2.320000,,2013-06-10 03:53:00,